TimeCDT,TemperatureF,Dew PointF,Humidity,Sea Level PressureIn,VisibilityMPH,Wind Direction,Wind SpeedMPH,Gust SpeedMPH,PrecipitationIn,Events,Conditions,WindDirDegrees,DateUTC
12:54 AM,57.0,52.0,83,29.96,10.0,NW,3.5,-,N/A,,Mostly Cloudy,320,2013-09-12 05:54:00
1:54 AM,57.0,51.1,81,29.96,10.0,NW,4.6,-,N/A,,Scattered Clouds,310,2013-09-12 06:54:00
2:54 AM,52.0,50.0,93,29.97,10.0,Calm,Calm,-,N/A,,Clear,0,2013-09-12 07:54:00
3:54 AM,52.0,48.9,89,29.97,10.0,NNW,3.5,-,N/A,,Clear,330,2013-09-12 08:54:00
4:54 AM,50.0,46.9,89,29.98,10.0,NW,3.5,-,N/A,,Clear,320,2013-09-12 09:54:00
5:54 AM,52.0,50.0,93,30.00,10.0,NNW,5.8,-,N/A,,Clear,330,2013-09-12 10:54:00
6:54 AM,53.1,51.1,93,30.02,10.0,NNW,5.8,-,N/A,,Clear,330,2013-09-12 11:54:00
7:54 AM,55.9,53.1,90,30.03,10.0,NW,9.2,-,N/A,,Clear,320,2013-09-12 12:54:00
8:54 AM,60.1,53.1,78,30.03,10.0,NW,11.5,-,N/A,,Clear,320,2013-09-12 13:54:00
9:52 AM,62.6,51.8,68,30.04,-9999.0,NW,12.7,18.4,N/A,,Mostly Cloudy,320,2013-09-12 14:52:00
9:54 AM,62.1,51.1,67,30.05,-9999.0,NW,15.0,-,N/A,,Mostly Cloudy,310,2013-09-12 14:54:00
10:15 AM,62.6,51.8,68,30.04,-9999.0,NW,13.8,20.7,N/A,,Mostly Cloudy,320,2013-09-12 15:15:00
10:54 AM,64.9,50.0,58,30.05,10.0,NNW,12.7,20.7,N/A,,Scattered Clouds,340,2013-09-12 15:54:00
11:54 AM,62.1,46.0,56,30.07,10.0,NW,18.4,27.6,N/A,,Mostly Cloudy,320,2013-09-12 16:54:00
12:54 PM,63.0,46.0,54,30.08,10.0,NNW,13.8,-,N/A,,Mostly Cloudy,330,2013-09-12 17:54:00
1:54 PM,59.0,46.9,64,30.09,10.0,NNW,10.4,21.9,N/A,,Overcast,340,2013-09-12 18:54:00
2:54 PM,59.0,48.0,67,30.10,10.0,NNW,12.7,20.7,0.00,,Overcast,330,2013-09-12 19:54:00
3:54 PM,59.0,46.0,62,30.11,10.0,NNW,12.7,-,N/A,,Overcast,330,2013-09-12 20:54:00
4:54 PM,57.0,43.0,59,30.12,10.0,NNW,12.7,-,N/A,,Overcast,330,2013-09-12 21:54:00
5:54 PM,55.0,42.1,62,30.14,10.0,NNW,12.7,21.9,N/A,,Overcast,330,2013-09-12 22:54:00
6:54 PM,54.0,42.1,64,30.15,10.0,NNW,13.8,19.6,N/A,,Mostly Cloudy,340,2013-09-12 23:54:00
7:54 PM,52.0,43.0,71,30.17,10.0,North,10.4,-,N/A,,Overcast,350,2013-09-13 00:54:00
8:54 PM,48.0,42.1,80,30.18,10.0,NNW,6.9,-,N/A,,Clear,340,2013-09-13 01:54:00
9:54 PM,48.9,43.0,80,30.18,10.0,NW,4.6,-,N/A,,Overcast,320,2013-09-13 02:54:00
10:54 PM,50.0,43.0,77,30.18,10.0,NNW,4.6,-,N/A,,Overcast,330,2013-09-13 03:54:00
11:54 PM,50.0,41.0,71,30.19,10.0,North,5.8,-,N/A,,Overcast,360,2013-09-13 04:54:00